Location: Caltech
(34.1382°N, 118.1253°W)
Time: 18:53:35
(UTC-08:00)

Courier 1B - Visible Passes

Search period start: 20 February 2017 00:00
Search period end: 02 March 2017 00:00
Orbit: 962 x 1209 km, 28.3° (Epoch: 19 February)

Date Brightness Start Highest point End Pass type
(mag) Time Alt. Az. Time Alt. Az. Time Alt. Az.
20 Feb 8.2 03:53:33 45° SE 03:53:33 45° SE 03:58:31 10° ESE visible
20 Feb 8.1 05:40:26 13° W 05:45:55 44° S 05:52:03 10° ESE visible
21 Feb 9.6 03:03:08 19° ESE 03:03:08 19° ESE 03:04:51 10° E visible
21 Feb 7.9 04:50:02 35° WSW 04:52:18 49° S 04:58:30 10° ESE visible
22 Feb 8.0 03:59:37 48° SSE 03:59:37 48° SSE 04:04:55 10° ESE visible
22 Feb 8.4 05:46:31 10° W 05:52:14 34° SSW 05:57:59 10° SE visible
23 Feb 9.4 03:09:15 21° ESE 03:09:15 21° ESE 03:11:20 10° ESE visible
23 Feb 8.1 04:56:07 29° WSW 04:58:39 40° SSW 05:04:38 10° SE visible
24 Feb 8.1 04:05:46 44° S 04:05:46 44° S 04:11:12 10° ESE visible
24 Feb 8.9 05:53:22 10° WSW 05:58:27 24° SSW 06:03:30 10° SSE visible
25 Feb 9.3 03:15:25 22° ESE 03:15:25 22° ESE 03:17:42 10° ESE visible
25 Feb 8.5 05:02:19 23° WSW 05:04:55 30° SSW 05:10:26 10° SE visible
26 Feb 8.3 04:12:01 35° S 04:12:01 35° S 04:17:13 10° SE visible
27 Feb 9.4 03:21:45 21° SE 03:21:45 21° SE 03:23:53 10° SE visible
27 Feb 9.0 05:08:39 17° SW 05:11:05 20° SSW 05:15:38 10° SSE visible
28 Feb 8.8 04:18:26 25° S 04:18:26 25° S 04:22:50 10° SSE visible
01 Mar 9.5 03:28:15 17° SSE 03:28:15 17° SSE 03:29:46 10° SE visible
01 Mar 9.4 05:15:10 10° SW 05:17:09 12° SSW 05:19:17 10° SSW visible
01 Mar 9.9 20:42:55 10° SSW 20:43:54 13° SSW 20:43:54 13° SSW visible
